This is the latest recevied weather packets stored in our database for station/object EA3IK-1. If no packets are shown the sender has not sent any weather packets the latest 10 day(s).
| Time | Temp. | Humidity | Pressure | Rain* | Wind** | Luminosity | Snow |
|---|---|---|---|---|---|---|---|
| 1788441350 | 33.33° C | 53% | 1019.8 hPa | 0 mm | - | - | - |
| 1788440449 | 32.78° C | 54% | 1019.8 hPa | 0 mm | - | - | - |
| 1788439548 | 31.67° C | 57% | 1019.8 hPa | 0 mm | - | - | - |
| 1788438647 | 32.22° C | 58% | 1020 hPa | 0 mm | - | - | - |
| 1788437747 | 32.22° C | 57% | 1020 hPa | 0 mm | - | - | - |
| 1788436846 | 32.22° C | 54% | 1020.1 hPa | 0 mm | - | - | - |
| 1788435945 | 32.22° C | 53% | 1020.3 hPa | 0 mm | - | - | - |
| 1788435044 | 32.78° C | 51% | 1020.4 hPa | 0 mm | - | - | - |
| 1788434204 | 32.22° C | 51% | 1020.6 hPa | 0 mm | - | - | - |
| 1788434143 | 32.22° C | 51% | 1020.6 hPa | 0 mm | - | - | - |
| 1788433254 | 32.22° C | 51% | 1020.9 hPa | 0 mm | - | - | - |
| 1788432341 | 31.11° C | 52% | 1021.1 hPa | 0 mm | - | - | - |
| 1788431441 | 31.67° C | 52% | 1021.3 hPa | 0 mm | - | - | - |
| 1788430540 | 31.11° C | 53% | 1021.4 hPa | 0 mm | - | - | - |
| 1788429639 | 31.11° C | 53% | 1021.5 hPa | 0 mm | - | - | - |
| 1788428738 | 31.11° C | 51% | 1021.6 hPa | 0 mm | - | - | - |
| 1788427837 | 30.56° C | 54% | 1021.6 hPa | 0 mm | - | - | - |
| 1788426965 | 30.56° C | 59% | 1021.6 hPa | 0 mm | - | - | - |
| 1788426035 | 28.89° C | 61% | 1021.5 hPa | 0 mm | - | - | - |
| 1788425135 | 28.33° C | 63% | 1021.4 hPa | 0 mm | - | - | - |
| 1788424234 | 27.78° C | 65% | 1021.3 hPa | 0 mm | - | - | - |
| 1788423333 | 27.22° C | 65% | 1021.4 hPa | 0 mm | - | - | - |
| 1788422432 | 26.67° C | 66% | 1021.5 hPa | 0 mm | - | - | - |
| 1788421531 | 25.56° C | 66% | 1021.6 hPa | 0 mm | - | - | - |
| 1788420630 | 26.11° C | 66% | 1021.7 hPa | 0 mm | - | - | - |
* Rain latest hour (hover to see other rain measurements)
** Current wind speed in m/s (hover to see current wind gust speed)